Simultaneous Nadir Overpasses (SNOs) Predictions

Prediction of SNOs between GOES-15 and METOP-C Satellite Orbit:

Table of predicted SNOs for the next 14.0 days since TLE Epoch: 2/10/2021
Index Date Time (GOES-15) GOES-15 Lat,Lon METOP-C Lat,Lon Distance(km) Time Diff (sec)
1 02/10/2021 17:51:53 -0.03,-127.60 -0.66,-124.75 324.82 80
2 02/12/2021 06:08:14 0.07,-127.64 -0.34,-129.35 195.95 80
3 02/13/2021 05:50:15 0.04,-127.68 0.77,-124.35 378.48 80
4 02/14/2021 18:06:27 -0.08,-127.76 0.21,-128.92 132.73 80
5 02/15/2021 17:48:27 -0.05,-127.80 -0.89,-123.93 441.39 80
6 02/17/2021 06:04:49 0.10,-127.84 -0.09,-128.53 79.93 80
7 02/18/2021 05:46:49 0.07,-127.87 1.02,-123.53 494.06 80
8 02/19/2021 18:03:02 -0.11,-127.96 -0.09,-128.11 18.04 80
9 02/22/2021 06:04:04 0.14,-128.01 0.23,-127.73 32.70 80
10 02/23/2021 18:20:17 -0.19,-128.08 0.77,-132.29 480.25 80
